Voltar ao catálogo

COSMOS 2251 DEB

AtivoLEO
NORAD 34554·DEBRIS·🇷🇺 Russia

Lançado Jun 16, 1993 de Plesetsk Cosmodrome

Loading…

Próximas Passagens (próximas 24 horas)

TLE

AtualizadoSource: Space-Track

Época: Sep 14, 2026, 12:22 UTC

1 34554U 93036UQ  26257.51545068  .00000425  00000-0  14779-3 0  9990
2 34554  74.0387 150.9986 0023027 152.6733 266.1726 14.38363032917203

Acompanhe COSMOS 2251 DEB em tempo real com AllMySat

Download on the App Store